| time (UTC) | temp F | wind direction | speed knots | gust knots | rain 1hr in | rain 24hr in | rain mn in | humidity % | barometer mb |
| 20260505124604 | 76 | 292 | 0.0 | 0.0 | 0.00 | 0.00 | 0.00 | 79 | 1008.9 |
| 20260505123110 | 76 | 292 | 0.0 | 0.0 | 0.00 | 0.00 | 0.00 | 79 | 1008.8 |
| 20260505121552 | 76 | 292 | 0.0 | 0.0 | 0.00 | 0.00 | 0.00 | 80 | 1008.7 |
| 20260505120054 | 76 | 288 | 1.7 | 4.3 | 0.00 | 0.00 | 0.00 | 79 | 1008.6 |
| 20260505114554 | 77 | 296 | 0.0 | 1.7 | 0.00 | 0.00 | 0.00 | 78 | 1008.6 |
| 20260505113051 | 77 | 298 | 1.7 | 3.5 | 0.00 | 0.00 | 0.00 | 79 | 1008.4 |
| 20260505111545 | 77 | 292 | 0.0 | 0.0 | 0.00 | 0.00 | 0.00 | 78 | 1008.3 |
| 20260505101546 | 77 | 294 | 0.0 | 0.0 | 0.00 | 0.00 | 0.00 | 79 | 1007.9 |
| 20260505100043 | 77 | 296 | 0.0 | 0.0 | 0.00 | 0.00 | 0.00 | 79 | 1007.9 |
| 20260505094537 | 77 | 296 | 0.0 | 0.0 | 0.00 | 0.00 | 0.00 | 78 | 1007.9 |
| 20260505093043 | 78 | 296 | 0.0 | 0.0 | 0.00 | 0.00 | 0.00 | 78 | 1008.0 |
| 20260505091542 | 77 | 302 | 0.0 | 0.0 | 0.00 | 0.00 | 0.00 | 79 | 1007.9 |
| 20260505090047 | 77 | 302 | 0.0 | 1.7 | 0.00 | 0.00 | 0.00 | 80 | 1007.9 |
| 20260505084503 | 78 | 307 | 0.9 | 2.6 | 0.00 | 0.00 | 0.00 | 81 | 1008.1 |
| 20260505083004 | 78 | 304 | 0.0 | 0.0 | 0.00 | 0.00 | 0.00 | 79 | 1008.2 |
| 20260505081601 | 78 | 304 | 0.0 | 0.0 | 0.00 | 0.00 | 0.00 | 79 | 1008.4 |
| 20260505080058 | 79 | 304 | 0.0 | 0.0 | 0.00 | 0.00 | 0.00 | 80 | 1008.5 |
| 20260505074556 | 79 | 304 | 0.0 | 0.0 | 0.00 | 0.00 | 0.00 | 82 | 1008.6 |
| 20260505073059 | 79 | 304 | 0.0 | 0.0 | 0.00 | 0.00 | 0.00 | 80 | 1008.8 |
| 20260505071550 | 80 | 304 | 0.0 | 0.0 | 0.00 | 0.00 | 0.00 | 82 | 1009.0 |
| 20260505070054 | 80 | 304 | 0.0 | 0.0 | 0.00 | 0.00 | 0.00 | 83 | 1009.0 |
| 20260505064548 | 80 | 304 | 0.0 | 0.0 | 0.00 | 0.00 | 0.00 | 83 | 1009.0 |
| 20260505063046 | 81 | 304 | 0.0 | 0.0 | 0.00 | 0.00 | 0.00 | 83 | 1008.9 |
| 20260505061543 | 81 | 304 | 0.0 | 0.0 | 0.00 | 0.00 | 0.00 | 84 | 1009.0 |
| 20260505060042 | 81 | 304 | 0.0 | 0.0 | 0.00 | 0.00 | 0.00 | 84 | 1009.0 |
| 20260505054541 | 81 | 304 | 0.0 | 1.7 | 0.00 | 0.00 | 0.00 | 84 | 1009.2 |
| 20260505053039 | 81 | 297 | 0.9 | 2.6 | 0.00 | 0.00 | 0.00 | 84 | 1009.3 |
| 20260505051508 | 82 | 264 | 0.9 | 4.3 | 0.00 | 0.00 | 0.00 | 84 | 1009.4 |
| 20260505041610 | 82 | 272 | 0.9 | 5.2 | 0.00 | 0.00 | 0.00 | 83 | 1009.5 |
| 20260505040101 | 82 | 259 | 1.7 | 5.2 | 0.00 | 0.00 | 0.00 | 83 | 1009.4 |
| 20260505034555 | 82 | 271 | 2.6 | 7.0 | 0.00 | 0.00 | 0.00 | 83 | 1009.2 |
| 20260505033050 | 83 | 267 | 1.7 | 6.1 | 0.00 | 0.00 | 0.00 | 82 | 1009.1 |
| 20260505031549 | 83 | 275 | 1.7 | 7.0 | 0.00 | 0.00 | 0.00 | 81 | 1008.9 |
| 20260505030045 | 83 | 267 | 2.6 | 7.0 | 0.00 | 0.00 | 0.00 | 80 | 1008.8 |
| 20260505024542 | 84 | 240 | 0.9 | 5.2 | 0.00 | 0.00 | 0.00 | 79 | 1008.7 |
| 20260505023043 | 84 | 226 | 2.6 | 5.2 | 0.00 | 0.00 | 0.00 | 78 | 1008.7 |
| 20260505021540 | 84 | 242 | 0.9 | 4.3 | 0.00 | 0.00 | 0.00 | 77 | 1008.6 |
| 20260505020036 | 85 | 257 | 0.9 | 5.2 | 0.00 | 0.00 | 0.00 | 75 | 1008.5 |
| 20260505014536 | 85 | 236 | 0.0 | 1.7 | 0.00 | 0.00 | 0.00 | 74 | 1008.4 |
| 20260505013025 | 85 | 247 | 1.7 | 4.3 | 0.00 | 0.00 | 0.00 | 74 | 1008.1 |
| 20260505011528 | 85 | 234 | 2.6 | 6.1 | 0.00 | 0.00 | 0.00 | 74 | 1008.0 |
| 20260505010015 | 86 | 212 | 2.6 | 6.1 | 0.00 | 0.00 | 0.00 | 74 | 1008.0 |
| 20260505004517 | 86 | 219 | 4.3 | 7.0 | 0.00 | 0.00 | 0.00 | 73 | 1007.8 |
| 20260505003009 | 87 | 192 | 4.3 | 8.7 | 0.00 | 0.00 | 0.00 | 72 | 1007.7 |
| 20260505001507 | 87 | 178 | 6.1 | 11.3 | 0.00 | 0.00 | 0.00 | 71 | 1007.7 |
| 20260505000008 | 88 | 163 | 5.2 | 10.4 | 0.00 | 0.00 | 0.00 | 69 | 1007.5 |
| 20260504234504 | 89 | 213 | 7.0 | 11.3 | 0.00 | 0.00 | 0.00 | 67 | 1007.6 |
| 20260504233108 | 90 | 205 | 6.1 | 10.4 | 0.00 | 0.00 | 0.00 | 64 | 1007.5 |
| 20260504231559 | 91 | 167 | 5.2 | 8.7 | 0.00 | 0.00 | 0.00 | 61 | 1007.4 |
| 20260504230058 | 90 | 206 | 6.1 | 8.7 | 0.00 | 0.00 | 0.00 | 60 | 1007.4 |
| 20260504224609 | 90 | 161 | 7.0 | 11.3 | 0.00 | 0.00 | 0.00 | 62 | 1007.4 |
| 20260504223052 | 91 | 216 | 7.0 | 11.3 | 0.00 | 0.00 | 0.00 | 59 | 1007.5 |
| 20260504221551 | 92 | 184 | 9.6 | 13.0 | 0.00 | 0.00 | 0.00 | 54 | 1007.7 |
| 20260504220058 | 93 | 211 | 6.1 | 13.9 | 0.00 | 0.00 | 0.00 | 46 | 1007.7 |
| 20260504214550 | 94 | 360 | 8.7 | 15.6 | 0.00 | 0.00 | 0.00 | 42 | 1007.8 |
| 20260504213041 | 94 | 224 | 7.8 | 15.6 | 0.00 | 0.00 | 0.00 | 43 | 1007.8 |
| 20260504211518 | 94 | 205 | 8.7 | 13.9 | 0.00 | 0.00 | 0.00 | 45 | 1007.8 |
| 20260504210018 | 95 | 204 | 5.2 | 13.9 | 0.00 | 0.00 | 0.00 | 44 | 1007.8 |
| 20260504204512 | 94 | 167 | 8.7 | 16.5 | 0.00 | 0.00 | 0.00 | 42 | 1007.9 |
| 20260504203013 | 95 | 168 | 9.6 | 15.6 | 0.00 | 0.00 | 0.00 | 42 | 1007.9 |
| 20260504201520 | 95 | 144 | 7.8 | 13.0 | 0.00 | 0.00 | 0.00 | 43 | 1008.0 |
| 20260504200008 | 94 | 143 | 7.0 | 12.2 | 0.00 | 0.00 | 0.00 | 42 | 1008.1 |
| 20260504194507 | 94 | 192 | 7.8 | 13.0 | 0.00 | 0.00 | 0.00 | 45 | 1008.2 |
| 20260504193007 | 94 | 188 | 7.8 | 16.5 | 0.00 | 0.00 | 0.00 | 45 | 1008.4 |
| 20260504191507 | 94 | 186 | 9.6 | 15.6 | 0.00 | 0.00 | 0.00 | 46 | 1008.7 |
| 20260504190003 | 94 | 240 | 7.8 | 15.6 | 0.00 | 0.00 | 0.00 | 46 | 1008.8 |
| 20260504184506 | 95 | 169 | 6.1 | 13.0 | 0.00 | 0.00 | 0.00 | 46 | 1008.8 |
| 20260504183002 | 95 | 163 | 7.8 | 13.0 | 0.00 | 0.00 | 0.00 | 47 | 1009.1 |
| 20260504181502 | 94 | 140 | 8.7 | 19.1 | 0.00 | 0.00 | 0.00 | 47 | 1009.4 |
| 20260504180055 | 96 | 159 | 8.7 | 17.4 | 0.00 | 0.00 | 0.00 | 46 | 1009.3 |
| 20260504174601 | 96 | 170 | 8.7 | 12.2 | 0.00 | 0.00 | 0.00 | 45 | 1009.4 |
| 20260504173057 | 94 | 128 | 4.3 | 12.2 | 0.00 | 0.00 | 0.00 | 47 | 1009.6 |
| 20260504171549 | 94 | 194 | 6.1 | 13.0 | 0.00 | 0.00 | 0.00 | 45 | 1009.8 |
| 20260504140110 | 86 | 59 | 0.0 | 0.9 | 0.00 | 0.00 | 0.00 | 63 | 1010.2 |